DW9750 Weather Reports


time (UTC)temp
F
wind
direction
speed
knots
gust
knots
rain 1hr
in
rain 24hr
in
rain mn
in
humidity
%
barometer
mb
20260902221521 100 160 0.9 6.1 0.00 0.00 0.00 36 1008.8
20260902220017 100 173 1.7 5.2 0.00 0.00 0.00 35 1008.9
20260902214516 101 166 0.9 4.3 0.00 0.00 0.00 33 1009.0
20260902213012 100 189 1.7 6.1 0.00 0.00 0.00 35 1009.2
20260902211516 99 255 1.7 7.8 0.00 0.00 0.00 37 1009.2
20260902210008 99 202 4.3 7.0 0.00 0.00 0.00 36 1009.4
20260902204505 99 260 2.6 7.8 0.00 0.00 0.00 38 1009.8
20260902203004 97 161 3.5 7.0 0.00 0.00 0.00 38 1010.0
20260902201502 98 249 1.7 5.2 0.00 0.00 0.00 40 1010.2
20260902200059 97 222 1.7 4.3 0.00 0.00 0.00 40 1010.6
20260902194557 95 38 0.9 7.0 0.00 0.00 0.00 42 1010.8
20260902193055 97 170 2.6 5.2 0.00 0.00 0.00 40 1010.9
20260902191553 95 305 1.7 4.3 0.00 0.00 0.00 44 1011.2
20260902190050 95 78 0.0 1.7 0.00 0.00 0.00 44 1011.5
20260902184548 97 116 0.9 5.2 0.00 0.00 0.00 42 1011.8
20260902183056 96 293 2.6 7.0 0.00 0.00 0.00 43 1012.0
20260902181543 95 229 1.7 3.5 0.00 0.00 0.00 44 1012.3
20260902180044 95 262 1.7 7.8 0.00 0.00 0.00 44 1012.6
20260902174537 94 19 1.7 5.2 0.00 0.00 0.00 45 1012.7
20260902173046 94 310 1.7 4.3 0.00 0.00 0.00 47 1012.9
20260902171530 92 260 2.6 5.2 0.00 0.00 0.00 50 1013.2
20260902170033 92 222 3.5 7.0 0.00 0.00 0.00 49 1013.4
20260902164530 92 274 1.7 5.2 0.00 0.00 0.00 49 1013.5
20260902163022 90 288 3.5 7.0 0.00 0.00 0.00 51 1013.5
20260902161518 89 170 1.7 8.7 0.00 0.00 0.00 52 1013.6
20260902160015 88 209 1.7 7.8 0.00 0.00 0.00 54 1013.6
20260902154511 87 319 0.9 3.5 0.00 0.00 0.00 61 1013.6
20260902153010 86 316 1.7 4.3 0.00 0.00 0.00 63 1013.6
20260902151504 83 104 0.9 3.5 0.00 0.00 0.00 68 1013.8
20260902144557 81 282 0.9 2.6 0.00 0.00 0.00 75 1013.9
20260902143058 79 239 0.0 2.6 0.00 0.00 0.00 78 1014.0
20260902141556 78 7 0.0 0.9 0.00 0.00 0.00 80 1014.0
20260902140054 75 64 0.0 0.0 0.00 0.00 0.00 82 1014.0
20260902134554 73 68 0.0 0.0 0.00 0.00 0.00 84 1014.0
20260902133057 71 68 0.0 0.0 0.00 0.00 0.00 87 1014.0
20260902131551 70 68 0.0 0.0 0.00 0.00 0.00 89 1013.9
20260902130048 69 68 0.0 0.0 0.00 0.00 0.00 90 1013.7
20260902124549 69 68 0.0 0.0 0.00 0.00 0.00 89 1013.5
20260902123045 69 68 0.0 0.0 0.00 0.00 0.00 89 1013.3
20260902121546 68 68 0.0 0.0 0.00 0.00 0.00 88 1013.3
20260902120043 69 68 0.0 0.0 0.00 0.00 0.00 88 1013.2
20260902114542 69 68 0.0 0.0 0.00 0.00 0.00 88 1013.2
20260902113039 70 68 0.0 0.0 0.00 0.00 0.00 87 1013.2
20260902111538 70 68 0.0 0.0 0.00 0.00 0.00 87 1013.1
20260902110047 71 68 0.0 0.0 0.00 0.00 0.00 86 1013.1
20260902104552 71 68 0.0 0.0 0.00 0.00 0.00 85 1013.1
20260902103047 71 68 0.0 0.0 0.00 0.00 0.00 84 1013.1
20260902101532 72 68 0.0 0.0 0.00 0.00 0.00 85 1013.1
20260902100030 72 68 0.0 0.0 0.00 0.00 0.00 83 1013.1
20260902094528 73 68 0.0 0.0 0.00 0.00 0.00 81 1013.1
20260902093025 74 68 0.0 0.0 0.00 0.00 0.00 81 1013.1
20260902091525 74 68 0.0 0.0 0.00 0.00 0.00 80 1013.1
20260902090028 74 68 0.0 0.0 0.00 0.00 0.00 80 1013.2
20260902084623 74 68 0.0 0.0 0.00 0.00 0.00 80 1013.1
20260902083021 74 68 0.0 0.0 0.00 0.00 0.00 81 1013.3
20260902081520 74 68 0.0 0.0 0.00 0.00 0.00 80 1013.3
20260902080021 75 68 0.0 0.0 0.00 0.00 0.00 78 1013.3
20260902074514 76 68 0.0 0.0 0.00 0.00 0.00 77 1013.3
20260902073011 77 68 0.0 0.0 0.00 0.00 0.00 75 1013.3
20260902071508 78 83 0.0 1.7 0.00 0.00 0.00 74 1013.2
20260902070008 78 76 0.9 2.6 0.00 0.00 0.00 73 1013.2
20260902064509 79 67 0.9 1.7 0.00 0.00 0.00 72 1013.1
20260902063008 79 74 0.0 2.6 0.00 0.00 0.00 71 1013.2
20260902061622 79 92 0.9 4.3 0.00 0.00 0.00 70 1013.0
20260902054556 80 99 1.7 3.5 0.00 0.00 0.00 68 1012.9
20260902053054 80 78 1.7 4.3 0.00 0.00 0.00 67 1012.9
20260902051602 81 93 2.6 4.3 0.00 0.00 0.00 66 1012.9
20260902050048 81 101 1.7 4.3 0.00 0.00 0.00 65 1012.7
20260902044605 81 96 1.7 3.5 0.00 0.00 0.00 64 1012.7
20260902043048 80 87 0.9 2.6 0.00 0.00 0.00 64 1012.7
20260902041550 80 80 0.0 0.0 0.00 0.00 0.00 64 1012.7
20260902040046 80 70 0.0 0.0 0.00 0.00 0.00 64 1012.7
20260902034545 80 70 0.0 1.7 0.00 0.00 0.00 62 1012.5
20260902033045 81 70 0.0 0.0 0.00 0.00 0.00 60 1012.4
20260902031556 82 70 0.0 0.0 0.00 0.00 0.00 59 1012.3
20260902030042 83 70 0.0 0.0 0.00 0.00 0.00 57 1012.0
20260902024551 83 70 0.0 0.0 0.00 0.00 0.00 56 1011.9
20260902023044 84 70 0.9 1.7 0.00 0.00 0.00 55 1011.5
20260902021546 85 70 0.0 0.0 0.00 0.00 0.00 55 1011.2
20260902020045 85 70 0.0 1.7 0.00 0.00 0.00 52 1011.1
20260902014541 86 91 0.0 1.7 0.00 0.00 0.00 50 1010.8
20260902013043 87 91 0.0 1.7 0.00 0.00 0.00 49 1010.7
20260902011543 88 89 0.9 2.6 0.00 0.00 0.00 48 1010.5
20260902010043 89 92 0.9 3.5 0.00 0.00 0.00 46 1010.4
20260902004541 91 85 0.9 2.6 0.00 0.00 0.00 44 1010.4
20260902003039 93 115 0.9 2.6 0.00 0.00 0.00 43 1010.5
20260902001539 94 97 0.9 4.3 0.00 0.00 0.00 41 1010.4
20260902000038 94 109 2.6 7.0 0.00 0.00 0.00 41 1010.5
20260901234536 95 92 4.3 7.8 0.00 0.00 0.00 40 1010.3
20260901233036 97 206 1.7 5.2 0.00 0.00 0.00 38 1010.3
20260901231543 97 90 1.7 6.1 0.00 0.00 0.00 37 1010.3
20260901230038 98 177 3.5 6.1 0.00 0.00 0.00 37 1010.2
20260901224536 97 175 1.7 4.3 0.00 0.00 0.00 38 1010.3
20260901223034 97 114 0.9 8.7 0.00 0.00 0.00 38 1010.3